STPSat-5

operational
NORAD ID: 43762 Int'l Des: 2018-099 Owner: STP Country: US
LEOCIRCULARRETROGRADESSO

About STPSat-5

Description loading...

Live Position

Loading 3D Globe...

Upcoming Passes

Altitude History

Altitude vs Time

uPlot chart will show altitude changes over time

Two-Line Element Set

1 43762U 18099E 26103.10255417 .00002949 00000-0 16998-3 0 9996
2 43762 97.4157 154.6651 0003246 171.7365 188.3920 15.13140466403021
Epoch: Apr 13, 2026 • Age: 6 hours

Current Status

Altitude 539.6 km
Velocity 7.59 km/s
Sub-Earth Point -37.99°S, 4.81°E
Launch Date Dec 3, 2018
Age 7.3 years
Type other

Technical Details

Classification Payload
Mass 110.00 kg
Dry Mass 100.00 kg
Total Mass 110.00 kg
Length 1.00 m
Diameter 0.40 m
Span 2.00 m
Shape Oct cyl+ 2 pan
Manufacturer SNVL
Bus Type SN-50
Phase Status In Orbit
Owner/State STP/US

Large Constellations

Loading constellations...